Location: Maiden
(35.5760°N, 81.2120°W)
Time: 00:50:23
(UTC-04:00)

A-11 Canister half - Pass Details

Date: 10 August 2020
Orbit: 1527 x 1682 km, 47.3° (Epoch: 25 September)

Event Time Altitude Azimuth Distance (km) Brightness Sun altitude
Rises 18:57:48 0° 303° (WNW) 4,927 12.9 15.2°
Reaches altitude 10° 19:01:00 10° 305° (NW) 3,926 12.5 14.6°
Maximum altitude 19:11:07 83° 34° (NNE) 1,651 9.4 12.6°
Drops below altitude 10° 19:20:53 10° 122° (ESE) 3,803 10.5 10.6°
Sets 19:23:56 0° 123° (ESE) 4,766 11.0 10.0°
